Location: Unspecified
(46.2256°N, 0.0000°E)
Time: 06:09:01
(UTC+00:00)

Vanguard 1 Rocket - Visible Passes

Search period start: 04 April 2026 00:00
Search period end: 14 April 2026 00:00
Orbit: 654 x 4213 km, 34.3° (Epoch: 28 March)

Date Brightness Start Highest point End Pass type
(mag) Time Alt. Az. Time Alt. Az. Time Alt. Az.
4 Apr 9.8 01:20:32 38° SSE 01:20:32 38° SSE 01:28:29 10° ESE visible
4 Apr 9.1 03:37:39 25° WSW 03:44:46 44° S 03:52:16 10° ESE visible
5 Apr 10.4 00:11:31 24° ESE 00:11:31 24° ESE 00:16:06 10° E visible
5 Apr 9.4 02:28:37 42° SSW 02:31:47 47° S 02:40:52 10° ESE visible
5 Apr 9.1 04:46:21 10° W 04:57:19 35° SSW 05:03:39 10° SE visible
5 Apr 10.9 23:02:26 11° E 23:02:26 11° E 23:02:53 10° E visible
6 Apr 9.7 01:19:31 44° SSE 01:19:31 44° SSE 01:29:05 10° ESE visible
6 Apr 9.2 03:36:37 24° WSW 03:44:55 44° SSW 03:52:43 10° ESE visible
6 Apr 11.4 21:19:50 10° S 21:53:17 - E 21:23:46 14° S visible
7 Apr 10.2 00:10:21 31° ESE 00:10:21 31° ESE 00:16:47 10° E visible
7 Apr 9.4 02:27:26 41° SW 02:31:53 49° S 02:41:22 10° ESE visible
7 Apr 9.3 04:46:09 10° W 04:57:19 33° SSW 05:03:52 10° SSE visible
7 Apr 11.4 20:12:03 10° SSE 20:16:52 12° SE 20:16:52 12° SE visible
7 Apr 10.8 22:29:16 10° SSW 23:01:06 17° ESE 23:03:48 10° E visible
8 Apr 9.7 01:18:11 49° S 01:18:13 49° S 01:29:36 10° ESE visible
8 Apr 9.3 03:35:14 21° WSW 03:44:58 44° SSW 03:53:05 10° SE visible
8 Apr 11.1 21:16:35 10° S 21:51:43 - E 21:27:35 23° SSE visible
8 Apr 10.1 23:42:05 10° SW 00:08:46 39° SE 00:17:21 10° E visible
9 Apr 9.5 02:25:50 37° SW 02:31:55 50° S 02:41:48 10° ESE visible
9 Apr 9.4 04:46:00 10° W 04:57:15 30° SSW 05:03:58 10° SSE visible
9 Apr 11.1 20:06:28 10° S 20:20:47 18° SE 20:21:19 18° SE visible
9 Apr 10.6 22:27:21 10° SSW 22:59:12 25° ESE 23:04:29 10° E visible
10 Apr 9.7 01:16:14 51° SSW 01:18:10 52° S 01:30:03 10° ESE visible
10 Apr 9.4 03:33:15 17° W 03:44:56 42° SSW 03:53:23 10° SE visible
10 Apr 10.7 21:14:03 10° SSW 21:49:19 13° E 21:50:40 10° E visible
10 Apr 10.0 23:40:51 10° SW 00:06:19 48° SSE 00:17:50 10° E visible
11 Apr 9.5 02:23:17 32° WSW 02:31:53 51° SSW 02:42:10 10° ESE visible
11 Apr 9.6 04:45:56 10° W 04:57:02 27° SW 05:03:53 10° SSE visible
11 Apr 11.0 20:02:44 10° S 20:20:02 23° SE 20:28:05 19° ESE visible
11 Apr 10.4 22:25:47 10° SW 22:55:39 37° ESE 23:05:00 10° E visible
12 Apr 9.7 00:56:02 10° WSW 01:18:03 55° S 01:30:27 10° ESE visible
12 Apr 9.5 03:29:16 10° W 03:44:48 40° SSW 03:53:33 10° SE visible
12 Apr 11.3 18:55:11 10° SSE 19:05:56 14° SE 19:16:17 10° ESE visible
12 Apr 10.6 21:12:02 10° SSW 21:33:59 37° SSE 21:51:20 10° E visible
12 Apr 10.0 23:39:49 10° WSW 00:03:32 54° S 00:18:13 10° E visible
13 Apr 9.6 02:12:08 10° W 02:31:46 50° SSW 02:42:27 10° SE visible
13 Apr 9.8 04:45:58 10° W 04:56:41 24° SW 05:03:35 10° S visible
13 Apr 10.9 19:59:57 10° S 20:19:13 29° SE 20:36:26 10° E visible
13 Apr 10.3 22:24:30 10° SW 22:48:31 49° SSE 23:05:23 10° E visible
